#timestamp,LO_Frequency,Hit,StdDev 
1504954815.6,286046999.8,N,1.1
1504954835.4,286047000.1,N,1.1
1504954855.3,286046998.1,N,1.3
1504954875.1,286046998.2,N,1.4
1504954895.9,286046999.0,N,1.4
1504954915.7,286046999.4,N,1.4
1504954935.5,286046998.8,N,1.5
1504954955.4,286046999.3,N,1.5
1504954975.2,286046998.4,N,1.5
1504954995.0,286046999.6,N,1.5
1504954996.0,286046999.6,N,1.5
1504955015.8,286046996.5,N,1.6
1504955035.6,286046997.0,N,1.7
1504955055.5,286046997.0,N,1.8
1504955075.3,286046999.1,N,1.7
1504955095.1,286046997.1,N,1.8
1504955115.9,286046996.9,N,1.9
1504955135.7,286046999.3,N,1.9
1504955155.6,286046996.9,N,1.9
1504955175.4,286046996.6,N,1.9
1504955195.2,286047000.8,N,1.9
1504955215.1,286047002.7,N,1.9
1504955216.0,286047002.7,N,2.0
1504955235.8,286047002.5,N,2.0
1504955255.7,286047005.7,N,2.3
1504955275.5,286047004.6,N,2.4
1504955295.3,286047004.7,N,2.5
1504955315.2,286047005.6,N,2.7
1504955335.0,286047003.2,N,2.7
1504955335.9,286047003.2,N,2.8
1504955355.8,286047001.9,N,2.8
1504955375.6,286047000.3,N,2.8
1504955395.4,286047001.0,N,2.8
1504955415.3,286046998.4,N,2.8
1504955435.1,286047001.1,N,2.8
1504955455.9,286046999.3,N,2.8
1504955475.7,286046999.5,N,2.8
1504955495.5,286046999.0,N,2.8
1504955515.4,286046996.5,N,2.8
1504955535.2,286046998.5,N,2.8
1504955555.1,286046998.8,N,2.9
1504955556.0,286046998.8,N,2.8
1504955575.8,286046999.5,N,2.7
1504955595.6,286046999.4,N,2.7
1504955615.5,286046997.0,N,2.7
1504955635.3,286046999.6,N,2.7
1504955655.2,286046999.1,N,2.6
1504955675.9,286046997.4,N,2.6
1504955695.7,286046997.3,N,2.6
1504955715.6,286046997.2,N,2.6
1504955735.4,286046997.1,N,2.7
1504955755.3,286046997.9,N,2.7
1504955775.1,286046996.8,N,2.7
1504955795.8,286046996.7,N,2.7
1504955815.7,286046998.0,N,2.5
1504955835.5,286046995.5,N,2.4
1504955855.4,286046995.0,N,2.3
1504955875.2,286046994.9,N,2.1
1504955895.0,286046995.4,N,2.0
1504955895.9,286046995.4,N,1.8
1504955915.8,286046997.3,N,1.7
1504955935.6,286046997.6,N,1.6
1504955955.5,286046997.2,N,1.5
1504955975.3,286046997.4,N,1.5
1504955995.1,286046997.3,N,1.4
1504956015.9,286046999.4,N,1.4
1504956035.7,286046996.5,N,1.4
1504956055.6,286046997.2,N,1.3
1504956075.4,286046996.7,N,1.3
1504956095.2,286046999.5,N,1.4
1504956115.1,286046998.7,N,1.4
1504956116.0,286046998.7,N,1.4
1504956135.8,286046999.3,N,1.3
1504956155.7,286046997.7,N,1.3
1504956175.5,286046997.5,N,1.3
1504956195.3,286046997.3,N,1.2
1504956215.2,286046997.3,N,1.2
1504956235.0,286046997.3,N,1.2
1504956235.9,286046997.3,N,1.2
1504956255.7,286046999.3,N,1.2
1504956275.6,286046998.7,N,1.3
1504956295.4,286046999.4,N,1.3
1504956315.3,286046998.2,N,1.3
1504956335.1,286046998.1,N,1.3
1504956355.8,286047000.1,N,1.4
1504956375.7,286682708.3,Y,0.0
1504956395.5,286047004.4,P,3.4
1504956415.4,286047002.4,N,2.9
1504956435.2,286047002.2,N,2.5
1504956455.0,286047002.4,N,2.3
1504956455.9,286047002.4,N,2.1
1504956475.8,286047000.9,N,2.0
1504956495.6,286047000.3,N,1.9
1504956515.5,286047002.3,N,1.8
1504956535.3,286047002.6,N,1.7
1504956555.1,286047002.1,N,1.6
1504956575.9,286047001.6,N,1.6
1504956595.7,286047002.2,N,1.5
1504956615.5,286047002.3,N,1.5
1504956635.4,286047002.2,N,1.4
1504956655.2,286047000.1,N,1.4
1504956675.1,286047000.2,N,1.4
1504956676.0,286047000.2,N,1.4
1504956695.8,286047001.1,N,1.4
1504956715.6,286046998.3,N,1.5
1504956735.5,286046998.6,N,1.6
1504956755.3,286046998.2,N,1.7
1504956775.2,286047001.1,N,1.7
1504956795.9,286047002.8,N,1.7
1504956815.7,286047000.8,N,1.6
1504956835.6,286047000.2,N,1.6
1504956855.4,286046999.8,N,1.6
1504956875.2,286047002.7,N,1.6
1504956895.1,286047000.3,N,1.6
1504956896.0,286047000.3,N,1.6
1504956915.8,286047000.6,N,1.4
1504956935.7,286047000.7,N,1.3
1504956955.5,286046999.0,N,1.3
1504956975.3,286046999.3,N,1.3
1504956995.2,286046998.8,N,1.4
1504957015.0,286047000.5,N,1.3
1504957015.9,286047000.5,N,1.3
1504957035.8,286046998.1,N,1.4
1504957055.6,286046998.4,N,1.4
1504957075.4,286046996.8,N,1.5
1504957095.3,286046999.5,N,1.5
1504957115.1,286046998.5,N,1.5
1504957135.9,286046998.1,N,1.5
1504957155.7,286046998.2,N,1.4
1504957175.5,286046998.6,N,1.4
1504957195.4,286047001.1,N,1.4
1504957215.2,286046998.1,N,1.4
1504957235.0,286046998.6,N,1.4
1504957235.9,286046998.6,N,1.4
1504957255.8,286046998.9,N,1.4
1504957275.6,286046999.0,N,1.4
1504957295.5,286046998.6,N,1.4
1504957315.3,286046998.7,N,1.3
1504957335.1,286046998.3,N,1.2
1504957355.9,286046998.7,N,1.2
1504957375.7,286046998.9,N,1.2
1504957395.6,286046998.8,N,1.2
1504957415.4,286046998.1,N,1.0
1504957435.2,286046998.8,N,1.0
1504957455.1,286047001.0,N,1.0
1504957456.0,286047001.0,N,1.0
1504957475.8,286046998.5,N,1.0
1504957495.7,286046998.4,N,1.0
1504957515.5,286046998.8,N,1.0
1504957535.3,286046998.4,N,1.0
1504957555.2,286046998.9,N,0.9
1504957575.0,286046998.3,N,0.9
1504957575.9,286046998.3,N,0.9
1504957595.8,286046998.6,N,0.9
1504957615.6,286046998.8,N,0.8
1504957635.4,286046998.8,N,0.8
1504957655.3,286046998.9,N,0.8
1504957675.1,286047000.7,N,0.8
1504957695.9,286047002.5,N,1.0
1504957715.7,286046999.8,N,1.0
1504957735.5,286047001.0,N,1.0
1504957755.4,286047000.7,N,1.1
1504957775.2,286047000.5,N,1.1
1504957795.0,286047001.2,N,1.1
1504957795.9,286047001.2,N,1.2
1504957815.8,286046998.3,N,1.2
1504957835.6,286047000.0,N,1.2
1504957855.5,286047000.3,N,1.2
1504957875.3,286047000.2,N,1.2
1504957895.1,286046998.1,N,1.2
1504957915.9,286047000.7,N,1.2
1504957935.7,286046998.2,N,1.2
1504957955.6,286046998.3,N,1.2
1504957975.4,286046998.2,N,1.2
1504957995.2,286046999.2,N,1.2
1504958015.1,286046998.7,N,1.2
1504958016.0,286046998.7,N,1.2
1504958035.8,286046998.8,N,1.2
1504958055.7,286046998.9,N,1.2
1504958075.5,286046998.4,N,1.2
1504958095.3,286046999.3,N,1.2
1504958115.2,286046996.5,Y,0.0
1504958135.0,286046998.8,P,0.3
1504958135.9,286046998.8,P,0.3
1504958155.7,286046999.5,N,0.3
1504958175.6,286046996.6,Y,0.0
1504958195.4,286046998.7,P,0.2
1504958215.3,286046999.9,N,0.5
1504958235.1,286047000.5,N,0.7
1504958255.8,286047001.0,N,0.8
1504958275.7,286047001.0,N,0.9
1504958295.5,286047000.5,N,0.8
1504958315.4,286047000.9,N,0.8
1504958335.2,286047000.6,N,0.8
1504958355.0,286047000.7,N,0.8
1504958355.9,286047000.7,N,0.7
1504958375.8,286047000.8,N,0.7
1504958395.6,286047000.9,N,0.7
